Year,Month,Day,Hour,Minute,Value (Times are PST for temperature in C)
2022,10,07,00,00,15.80
2022,10,07,00,01,15.80
2022,10,07,00,02,15.80
2022,10,07,00,03,15.80
2022,10,07,00,04,15.80
2022,10,07,00,05,15.80
2022,10,07,00,06,15.80
2022,10,07,00,07,15.90
2022,10,07,00,08,15.80
2022,10,07,00,09,15.90
2022,10,07,00,10,15.90
2022,10,07,00,11,15.90
2022,10,07,00,12,15.90
2022,10,07,00,13,15.90
2022,10,07,00,14,15.90
2022,10,07,00,15,15.90
2022,10,07,00,16,16.00
2022,10,07,00,17,16.00
2022,10,07,00,18,16.00
2022,10,07,00,19,16.00
2022,10,07,00,20,16.00
2022,10,07,00,21,16.00
2022,10,07,00,22,15.90
2022,10,07,00,23,15.90
2022,10,07,00,24,15.90
2022,10,07,00,25,15.90
2022,10,07,00,26,15.90
2022,10,07,00,27,15.90
2022,10,07,00,28,15.90
2022,10,07,00,29,15.90
2022,10,07,00,30,15.90
2022,10,07,00,31,15.90
2022,10,07,00,32,15.90
2022,10,07,00,33,15.90
2022,10,07,00,34,15.80
2022,10,07,00,35,15.80
2022,10,07,00,36,15.80
2022,10,07,00,37,15.80
2022,10,07,00,38,15.80
2022,10,07,00,39,15.70
2022,10,07,00,40,15.70
2022,10,07,00,41,15.70
2022,10,07,00,42,15.70
2022,10,07,00,43,15.70
2022,10,07,00,44,15.60
2022,10,07,00,45,15.60
2022,10,07,00,46,15.60
2022,10,07,00,47,15.60
2022,10,07,00,48,15.50
2022,10,07,00,49,15.50
2022,10,07,00,50,15.50
2022,10,07,00,51,15.50
2022,10,07,00,52,15.40
2022,10,07,00,53,15.40
2022,10,07,00,54,15.40
2022,10,07,00,55,15.40
2022,10,07,00,56,15.40
2022,10,07,00,57,15.40
2022,10,07,00,58,15.40
2022,10,07,00,59,15.40
2022,10,07,01,00,15.40
2022,10,07,01,01,15.40
2022,10,07,01,02,15.40
2022,10,07,01,03,15.30
2022,10,07,01,04,15.30
2022,10,07,01,05,15.30
2022,10,07,01,06,15.30
2022,10,07,01,07,15.30
2022,10,07,01,08,15.30
2022,10,07,01,09,15.30
2022,10,07,01,10,15.20
2022,10,07,01,11,15.20
2022,10,07,01,12,15.20
2022,10,07,01,13,15.10
2022,10,07,01,14,15.10
2022,10,07,01,15,15.10
2022,10,07,01,16,15.10
2022,10,07,01,17,15.10
2022,10,07,01,18,15.10
2022,10,07,01,19,15.10
2022,10,07,01,20,15.10
2022,10,07,01,21,15.10
2022,10,07,01,22,15.10
2022,10,07,01,23,15.10
2022,10,07,01,24,15.10
2022,10,07,01,25,15.10
2022,10,07,01,26,15.10
2022,10,07,01,27,15.10
2022,10,07,01,28,15.10
2022,10,07,01,29,15.10
2022,10,07,01,30,15.10
2022,10,07,01,31,15.10
2022,10,07,01,32,15.20
2022,10,07,01,33,15.30
2022,10,07,01,34,15.40
2022,10,07,01,35,15.40
2022,10,07,01,36,15.50
2022,10,07,01,37,15.50
2022,10,07,01,38,15.50
2022,10,07,01,39,15.50
2022,10,07,01,40,15.40
2022,10,07,01,41,15.40
2022,10,07,01,42,15.40
2022,10,07,01,43,15.40
2022,10,07,01,44,15.30
2022,10,07,01,45,15.30
2022,10,07,01,46,15.30
2022,10,07,01,47,15.30
2022,10,07,01,48,15.20
2022,10,07,01,49,15.20
2022,10,07,01,50,15.10
2022,10,07,01,51,15.10
2022,10,07,01,52,15.10
2022,10,07,01,53,15.10
2022,10,07,01,54,15.10
2022,10,07,01,55,15.10
2022,10,07,01,56,15.10
2022,10,07,01,57,15.10
2022,10,07,01,58,15.10
2022,10,07,01,59,15.10
2022,10,07,02,00,15.10
2022,10,07,02,01,15.10
2022,10,07,02,02,15.10
2022,10,07,02,03,15.10
2022,10,07,02,04,15.10
2022,10,07,02,05,15.10
2022,10,07,02,06,15.20
2022,10,07,02,07,15.20
2022,10,07,02,08,15.20
2022,10,07,02,09,15.20
2022,10,07,02,10,15.20
2022,10,07,02,11,15.20
2022,10,07,02,12,15.20
2022,10,07,02,13,15.10
2022,10,07,02,14,15.10
2022,10,07,02,15,15.00
2022,10,07,02,16,15.00
2022,10,07,02,17,14.90
2022,10,07,02,18,14.90
2022,10,07,02,19,14.90
2022,10,07,02,20,14.80
2022,10,07,02,21,14.80
2022,10,07,02,22,14.70
2022,10,07,02,23,14.70
2022,10,07,02,24,14.60
2022,10,07,02,25,14.60
2022,10,07,02,26,14.60
2022,10,07,02,27,14.50
2022,10,07,02,28,14.50
2022,10,07,02,29,14.50
2022,10,07,02,30,14.40
2022,10,07,02,31,14.40
2022,10,07,02,32,14.50
2022,10,07,02,33,14.50
2022,10,07,02,34,14.50
2022,10,07,02,35,14.60
2022,10,07,02,36,14.60
2022,10,07,02,37,14.60
2022,10,07,02,38,14.60
2022,10,07,02,39,14.70
2022,10,07,02,40,14.70
2022,10,07,02,41,14.80
2022,10,07,02,42,14.80
2022,10,07,02,43,14.80
2022,10,07,02,44,14.80
2022,10,07,02,45,14.70
2022,10,07,02,46,14.70
2022,10,07,02,47,14.70
2022,10,07,02,48,14.70
2022,10,07,02,49,14.60
2022,10,07,02,50,14.60
2022,10,07,02,51,14.60
2022,10,07,02,52,14.60
2022,10,07,02,53,14.60
2022,10,07,02,54,14.60
2022,10,07,02,55,14.60
2022,10,07,02,56,14.60
2022,10,07,02,57,14.60
2022,10,07,02,58,14.60
2022,10,07,02,59,14.60
2022,10,07,03,00,14.60
2022,10,07,03,01,14.60
2022,10,07,03,02,14.60
2022,10,07,03,03,14.60
2022,10,07,03,04,14.60
2022,10,07,03,05,14.60
2022,10,07,03,06,14.60
2022,10,07,03,07,14.60
2022,10,07,03,08,14.60
2022,10,07,03,09,14.60
2022,10,07,03,10,14.50
2022,10,07,03,11,14.50
2022,10,07,03,12,14.50
2022,10,07,03,13,14.40
2022,10,07,03,14,14.40
2022,10,07,03,15,14.40
2022,10,07,03,16,14.40
2022,10,07,03,17,14.40
2022,10,07,03,18,14.40
2022,10,07,03,19,14.50
2022,10,07,03,20,14.50
2022,10,07,03,21,14.50
2022,10,07,03,22,14.50
2022,10,07,03,23,14.50
2022,10,07,03,24,14.50
2022,10,07,03,25,14.50
2022,10,07,03,26,14.50
2022,10,07,03,27,14.50
2022,10,07,03,28,14.50
2022,10,07,03,29,14.50
2022,10,07,03,30,14.50
2022,10,07,03,31,14.50
2022,10,07,03,32,14.50
2022,10,07,03,33,14.50
2022,10,07,03,34,14.50
2022,10,07,03,35,14.50
2022,10,07,03,36,14.50
2022,10,07,03,37,14.40
2022,10,07,03,38,14.40
2022,10,07,03,39,14.40
2022,10,07,03,40,14.40
2022,10,07,03,41,14.40
2022,10,07,03,42,14.30
2022,10,07,03,43,14.30
2022,10,07,03,44,14.30
2022,10,07,03,45,14.30
2022,10,07,03,46,14.30
2022,10,07,03,47,14.30
2022,10,07,03,48,14.20
2022,10,07,03,49,14.20
2022,10,07,03,50,14.20
2022,10,07,03,51,14.20
2022,10,07,03,52,14.20
2022,10,07,03,53,14.20
2022,10,07,03,54,14.20
2022,10,07,03,55,14.10
2022,10,07,03,56,14.10
2022,10,07,03,57,14.10
2022,10,07,03,58,14.10
2022,10,07,03,59,14.10
2022,10,07,04,00,14.10
2022,10,07,04,01,14.10
2022,10,07,04,02,14.10
2022,10,07,04,03,14.10
2022,10,07,04,04,14.10
2022,10,07,04,05,14.00
2022,10,07,04,06,14.00
2022,10,07,04,07,14.00
2022,10,07,04,08,14.00
2022,10,07,04,09,14.10
2022,10,07,04,10,14.10
2022,10,07,04,11,14.10
2022,10,07,04,12,14.10
2022,10,07,04,13,14.10
2022,10,07,04,14,14.10
2022,10,07,04,15,14.10
2022,10,07,04,16,14.10
2022,10,07,04,17,14.10
2022,10,07,04,18,14.00
2022,10,07,04,19,14.00
2022,10,07,04,20,14.00
2022,10,07,04,21,13.90
2022,10,07,04,22,13.90
2022,10,07,04,23,13.90
2022,10,07,04,24,13.90
2022,10,07,04,25,13.90
2022,10,07,04,26,13.90
2022,10,07,04,27,13.80
2022,10,07,04,28,13.80
2022,10,07,04,29,13.80
2022,10,07,04,30,13.80
2022,10,07,04,31,13.80
2022,10,07,04,32,13.80
2022,10,07,04,33,13.80
2022,10,07,04,34,13.80
2022,10,07,04,35,13.80
2022,10,07,04,36,13.80
2022,10,07,04,37,13.80
2022,10,07,04,38,13.80
2022,10,07,04,39,13.80
2022,10,07,04,40,13.70
2022,10,07,04,41,13.70
2022,10,07,04,42,13.70
2022,10,07,04,43,13.70
2022,10,07,04,44,13.70
2022,10,07,04,45,13.70
2022,10,07,04,46,13.70
2022,10,07,04,47,13.70
2022,10,07,04,48,13.70
2022,10,07,04,49,13.70
2022,10,07,04,50,13.70
2022,10,07,04,51,13.70
2022,10,07,04,52,13.60
2022,10,07,04,53,13.60
2022,10,07,04,54,13.60
2022,10,07,04,55,13.60
2022,10,07,04,56,13.50
2022,10,07,04,57,13.50
2022,10,07,04,58,13.50
2022,10,07,04,59,13.50
2022,10,07,05,00,13.60
2022,10,07,05,01,13.60
2022,10,07,05,02,13.60
2022,10,07,05,03,13.60
2022,10,07,05,04,13.60
2022,10,07,05,05,13.60
2022,10,07,05,06,13.60
2022,10,07,05,07,13.60
2022,10,07,05,08,13.60
2022,10,07,05,09,13.50
2022,10,07,05,10,13.50
2022,10,07,05,11,13.50
2022,10,07,05,12,13.50
2022,10,07,05,13,13.50
2022,10,07,05,14,13.50
2022,10,07,05,15,13.40
2022,10,07,05,16,13.40
2022,10,07,05,17,13.40
2022,10,07,05,18,13.40
2022,10,07,05,19,13.40
2022,10,07,05,20,13.40
2022,10,07,05,21,13.40
2022,10,07,05,22,13.40
2022,10,07,05,23,13.40
2022,10,07,05,24,13.40
2022,10,07,05,25,13.40
2022,10,07,05,26,13.30
2022,10,07,05,27,13.30
2022,10,07,05,28,13.30
2022,10,07,05,29,13.30
2022,10,07,05,30,13.30
2022,10,07,05,31,13.30
2022,10,07,05,32,13.20
2022,10,07,05,33,13.20
2022,10,07,05,34,13.20
2022,10,07,05,35,13.20
2022,10,07,05,36,13.20
2022,10,07,05,37,13.20
2022,10,07,05,38,13.20
2022,10,07,05,39,13.20
2022,10,07,05,40,13.20
2022,10,07,05,41,13.20
2022,10,07,05,42,13.20
2022,10,07,05,43,13.20
2022,10,07,05,44,13.20
2022,10,07,05,45,13.30
2022,10,07,05,46,13.30
2022,10,07,05,47,13.30
2022,10,07,05,48,13.30
2022,10,07,05,49,13.30
2022,10,07,05,50,13.30
2022,10,07,05,51,13.30
2022,10,07,05,52,13.30
2022,10,07,05,53,13.30
2022,10,07,05,54,13.30
2022,10,07,05,55,13.20
2022,10,07,05,56,13.20
2022,10,07,05,57,13.20
2022,10,07,05,58,13.20
2022,10,07,05,59,13.20
2022,10,07,06,00,13.20
2022,10,07,06,01,13.10
2022,10,07,06,02,13.10
2022,10,07,06,03,13.10
2022,10,07,06,04,13.10
2022,10,07,06,05,13.10
2022,10,07,06,06,13.10
2022,10,07,06,07,13.10
2022,10,07,06,08,13.10
2022,10,07,06,09,13.10
2022,10,07,06,10,13.00
2022,10,07,06,11,13.00
2022,10,07,06,12,13.00
2022,10,07,06,13,13.00
2022,10,07,06,14,13.10
2022,10,07,06,15,13.10
2022,10,07,06,16,13.10
2022,10,07,06,17,13.10
2022,10,07,06,18,13.10
2022,10,07,06,19,13.20
2022,10,07,06,20,13.20
2022,10,07,06,21,13.20
2022,10,07,06,22,13.20
2022,10,07,06,23,13.20
2022,10,07,06,24,13.20
2022,10,07,06,25,13.10
2022,10,07,06,26,13.10
2022,10,07,06,27,13.10
2022,10,07,06,28,13.10
2022,10,07,06,29,13.10
2022,10,07,06,30,13.00
2022,10,07,06,31,13.00
2022,10,07,06,32,13.00
2022,10,07,06,33,13.00
2022,10,07,06,34,13.00
2022,10,07,06,35,13.00
2022,10,07,06,36,13.00
2022,10,07,06,37,13.00
2022,10,07,06,38,12.90
2022,10,07,06,39,12.90
2022,10,07,06,40,12.90
2022,10,07,06,41,12.90
2022,10,07,06,42,12.90
2022,10,07,06,43,12.90
2022,10,07,06,44,12.90
2022,10,07,06,45,12.90
2022,10,07,06,46,12.90
2022,10,07,06,47,12.90
2022,10,07,06,48,12.90
2022,10,07,06,49,12.90
2022,10,07,06,50,12.90
2022,10,07,06,51,12.90
2022,10,07,06,52,12.90
2022,10,07,06,53,12.90
2022,10,07,06,54,13.00
2022,10,07,06,55,13.00
2022,10,07,06,56,13.10
2022,10,07,06,57,13.10
2022,10,07,06,58,13.10
2022,10,07,06,59,13.10
2022,10,07,07,00,13.00
2022,10,07,07,01,13.00
2022,10,07,07,02,13.00
2022,10,07,07,03,12.90
2022,10,07,07,04,12.90
2022,10,07,07,05,12.90
2022,10,07,07,06,12.90
2022,10,07,07,07,12.90
2022,10,07,07,08,12.90
2022,10,07,07,09,12.90
2022,10,07,07,10,12.90
2022,10,07,07,11,12.90
2022,10,07,07,12,12.90
2022,10,07,07,13,13.00
2022,10,07,07,14,13.00
2022,10,07,07,15,13.00
2022,10,07,07,16,13.00
2022,10,07,07,17,12.90
2022,10,07,07,18,12.90
2022,10,07,07,19,12.90
2022,10,07,07,20,12.90
2022,10,07,07,21,12.90
2022,10,07,07,22,12.90
2022,10,07,07,23,12.80
2022,10,07,07,24,12.80
2022,10,07,07,25,12.80
2022,10,07,07,26,12.80
2022,10,07,07,27,12.70
2022,10,07,07,28,12.70
2022,10,07,07,29,12.70
2022,10,07,07,30,12.70
2022,10,07,07,31,12.70
2022,10,07,07,32,12.70
2022,10,07,07,33,12.70
2022,10,07,07,34,12.70
2022,10,07,07,35,12.70
2022,10,07,07,36,12.70
2022,10,07,07,37,12.70
2022,10,07,07,38,12.70
2022,10,07,07,39,12.70
2022,10,07,07,40,12.80
2022,10,07,07,41,12.80
2022,10,07,07,42,12.80
2022,10,07,07,43,12.80
2022,10,07,07,44,12.80
2022,10,07,07,45,12.80
2022,10,07,07,46,12.80
2022,10,07,07,47,12.80
2022,10,07,07,48,12.80
2022,10,07,07,49,12.80
2022,10,07,07,50,12.80
2022,10,07,07,51,12.80
2022,10,07,07,52,12.80
2022,10,07,07,53,12.80
2022,10,07,07,54,12.80
2022,10,07,07,55,12.80
2022,10,07,07,56,12.80
2022,10,07,07,57,12.80
2022,10,07,07,58,12.80
2022,10,07,07,59,12.80
2022,10,07,08,00,12.80
2022,10,07,08,01,12.80
2022,10,07,08,02,12.90
2022,10,07,08,03,12.90
2022,10,07,08,04,12.90
2022,10,07,08,05,13.00
2022,10,07,08,06,13.00
2022,10,07,08,07,13.10
2022,10,07,08,08,13.10
2022,10,07,08,09,13.20
2022,10,07,08,10,13.20
2022,10,07,08,11,13.30
2022,10,07,08,12,13.30
2022,10,07,08,13,13.30
2022,10,07,08,14,13.30
2022,10,07,08,15,13.30
2022,10,07,08,16,13.40
2022,10,07,08,17,13.40
2022,10,07,08,18,13.40
2022,10,07,08,19,13.50
2022,10,07,08,20,13.50
2022,10,07,08,21,13.50
2022,10,07,08,22,13.50
2022,10,07,08,23,13.60
2022,10,07,08,24,13.60
2022,10,07,08,25,13.60
2022,10,07,08,26,13.70
2022,10,07,08,27,13.70
2022,10,07,08,28,13.80
2022,10,07,08,29,13.80
2022,10,07,08,30,13.80
2022,10,07,08,31,13.80
2022,10,07,08,32,13.80
2022,10,07,08,33,13.90
2022,10,07,08,34,13.90
2022,10,07,08,35,13.90
2022,10,07,08,36,13.90
2022,10,07,08,37,13.90
2022,10,07,08,38,13.90
2022,10,07,08,39,14.00
2022,10,07,08,40,14.00
2022,10,07,08,41,14.10
2022,10,07,08,42,14.10
2022,10,07,08,43,14.10
2022,10,07,08,44,14.20
2022,10,07,08,45,14.20
2022,10,07,08,46,14.20
2022,10,07,08,47,14.30
2022,10,07,08,48,14.30
2022,10,07,08,49,14.30
2022,10,07,08,50,14.40
2022,10,07,08,51,14.40
2022,10,07,08,52,14.40
2022,10,07,08,53,14.50
2022,10,07,08,54,14.50
2022,10,07,08,55,14.60
2022,10,07,08,56,14.60
2022,10,07,08,57,14.60
2022,10,07,08,58,14.60
2022,10,07,08,59,14.70
2022,10,07,09,00,14.70
2022,10,07,09,01,14.70
2022,10,07,09,02,14.70
2022,10,07,09,03,14.70
2022,10,07,09,04,14.80
2022,10,07,09,05,14.80
2022,10,07,09,06,14.80
2022,10,07,09,07,14.80
2022,10,07,09,08,14.90
2022,10,07,09,09,14.90
2022,10,07,09,10,14.90
2022,10,07,09,11,15.00
2022,10,07,09,12,15.00
2022,10,07,09,13,15.00
2022,10,07,09,14,15.10
2022,10,07,09,15,15.10
2022,10,07,09,16,15.20
2022,10,07,09,17,15.30
2022,10,07,09,18,15.30
2022,10,07,09,19,15.40
2022,10,07,09,20,15.50
2022,10,07,09,21,15.60
2022,10,07,09,22,15.70
2022,10,07,09,23,15.80
2022,10,07,09,24,15.80
2022,10,07,09,25,15.90
2022,10,07,09,26,16.00
2022,10,07,09,27,16.10
2022,10,07,09,28,16.20
2022,10,07,09,29,16.30
2022,10,07,09,30,16.50
2022,10,07,09,31,16.60
2022,10,07,09,32,16.80
2022,10,07,09,33,16.90
2022,10,07,09,34,17.10
2022,10,07,09,35,17.20
2022,10,07,09,36,17.40
2022,10,07,09,37,17.50
2022,10,07,09,38,17.60
2022,10,07,09,39,17.70
2022,10,07,09,40,17.80
2022,10,07,09,41,17.90
2022,10,07,09,42,18.00
2022,10,07,09,43,18.10
2022,10,07,09,44,18.20
2022,10,07,09,45,18.20
2022,10,07,09,46,18.30
2022,10,07,09,47,18.30
2022,10,07,09,48,18.40
2022,10,07,09,49,18.40
2022,10,07,09,50,18.40
2022,10,07,09,51,18.40
2022,10,07,09,52,18.40
2022,10,07,09,53,18.50
2022,10,07,09,54,18.50
2022,10,07,09,55,18.60
2022,10,07,09,56,18.60
2022,10,07,09,57,18.60
2022,10,07,09,58,18.70
2022,10,07,09,59,18.70
2022,10,07,10,00,18.70
2022,10,07,10,01,18.80
2022,10,07,10,02,18.80
2022,10,07,10,03,18.80
2022,10,07,10,04,18.90
2022,10,07,10,05,19.00
2022,10,07,10,06,19.00
2022,10,07,10,07,19.10
2022,10,07,10,08,19.20
2022,10,07,10,09,19.20
2022,10,07,10,10,19.30
2022,10,07,10,11,19.40
2022,10,07,10,12,19.40
2022,10,07,10,13,19.40
2022,10,07,10,14,19.50
2022,10,07,10,15,19.50
2022,10,07,10,16,19.60
2022,10,07,10,17,19.60
2022,10,07,10,18,19.60
2022,10,07,10,19,19.70
2022,10,07,10,20,19.80
2022,10,07,10,21,19.80
2022,10,07,10,22,19.80
2022,10,07,10,23,19.90
2022,10,07,10,24,19.90
2022,10,07,10,25,19.90
2022,10,07,10,26,19.90
2022,10,07,10,27,20.00
2022,10,07,10,28,19.90
2022,10,07,10,29,20.00
2022,10,07,10,30,20.00
2022,10,07,10,31,20.00
2022,10,07,10,32,20.10
2022,10,07,10,33,20.00
2022,10,07,10,34,20.10
2022,10,07,10,35,20.00
2022,10,07,10,36,20.00
2022,10,07,10,37,19.90
2022,10,07,10,38,19.90
2022,10,07,10,39,19.80
2022,10,07,10,40,19.90
2022,10,07,10,41,19.90
2022,10,07,10,42,19.90
2022,10,07,10,43,19.90
2022,10,07,10,44,19.90
2022,10,07,10,45,20.00
2022,10,07,10,46,20.00
2022,10,07,10,47,20.00
2022,10,07,10,48,20.10
2022,10,07,10,49,20.10
2022,10,07,10,50,20.20
2022,10,07,10,51,20.20
2022,10,07,10,52,20.30
2022,10,07,10,53,20.30
2022,10,07,10,54,20.30
2022,10,07,10,55,20.40
2022,10,07,10,56,20.40
2022,10,07,10,57,20.40
2022,10,07,10,58,20.50
2022,10,07,10,59,20.50
2022,10,07,11,00,20.50
2022,10,07,11,01,20.60
2022,10,07,11,02,20.60
2022,10,07,11,03,20.70
2022,10,07,11,04,20.70
2022,10,07,11,05,20.70
2022,10,07,11,06,20.70
2022,10,07,11,07,20.70
2022,10,07,11,08,20.70
2022,10,07,11,09,20.70
2022,10,07,11,10,20.70
2022,10,07,11,11,20.70
2022,10,07,11,12,20.70
2022,10,07,11,13,20.70
2022,10,07,11,14,20.70
2022,10,07,11,15,20.70
2022,10,07,11,16,20.70
2022,10,07,11,17,20.70
2022,10,07,11,18,20.70
2022,10,07,11,19,20.70
2022,10,07,11,20,20.70
2022,10,07,11,21,20.70
2022,10,07,11,22,20.70
2022,10,07,11,23,20.70
2022,10,07,11,24,20.60
2022,10,07,11,25,20.60
2022,10,07,11,26,20.60
2022,10,07,11,27,20.50
2022,10,07,11,28,20.50
2022,10,07,11,29,20.50
2022,10,07,11,30,20.40
2022,10,07,11,31,20.40
2022,10,07,11,32,20.40
2022,10,07,11,33,20.50
2022,10,07,11,34,20.50
2022,10,07,11,35,20.50
2022,10,07,11,36,20.50
2022,10,07,11,37,20.50
2022,10,07,11,38,20.60
2022,10,07,11,39,20.60
2022,10,07,11,40,20.60
2022,10,07,11,41,20.70
2022,10,07,11,42,20.70
2022,10,07,11,43,20.80
2022,10,07,11,44,20.80
2022,10,07,11,45,20.80
2022,10,07,11,46,20.90
2022,10,07,11,47,20.90
2022,10,07,11,48,21.00
2022,10,07,11,49,21.10
2022,10,07,11,50,21.10
2022,10,07,11,51,21.10
2022,10,07,11,52,21.20
2022,10,07,11,53,21.20
2022,10,07,11,54,21.20
2022,10,07,11,55,21.30
2022,10,07,11,56,21.30
2022,10,07,11,57,21.40
2022,10,07,11,58,21.40
2022,10,07,11,59,21.40
2022,10,07,12,00,21.40
2022,10,07,12,01,21.40
2022,10,07,12,02,21.40
2022,10,07,12,03,21.50
2022,10,07,12,04,21.50
2022,10,07,12,05,21.50
2022,10,07,12,06,21.50
2022,10,07,12,07,21.60
2022,10,07,12,08,21.70
2022,10,07,12,09,21.70
2022,10,07,12,10,21.80
2022,10,07,12,11,21.80
2022,10,07,12,12,21.80
2022,10,07,12,13,21.90
2022,10,07,12,14,21.90
2022,10,07,12,15,21.90
2022,10,07,12,16,22.00
2022,10,07,12,17,22.00
2022,10,07,12,18,22.20
2022,10,07,12,19,22.20
2022,10,07,12,20,22.30
2022,10,07,12,21,22.40
2022,10,07,12,22,22.40
2022,10,07,12,23,22.50
2022,10,07,12,24,22.50
2022,10,07,12,25,22.60
2022,10,07,12,26,22.70
2022,10,07,12,27,22.90
2022,10,07,12,28,23.00
2022,10,07,12,29,23.10
2022,10,07,12,30,23.10
2022,10,07,12,31,23.10
2022,10,07,12,32,23.20
2022,10,07,12,33,23.10
2022,10,07,12,34,23.10
2022,10,07,12,35,23.20
2022,10,07,12,36,23.20
2022,10,07,12,37,23.30
2022,10,07,12,38,23.40
2022,10,07,12,39,23.40
2022,10,07,12,40,23.50
2022,10,07,12,41,23.50
2022,10,07,12,42,23.60
2022,10,07,12,43,23.70
2022,10,07,12,44,23.70
2022,10,07,12,45,23.70
2022,10,07,12,46,23.70
2022,10,07,12,47,23.60
2022,10,07,12,48,23.60
2022,10,07,12,49,23.60
2022,10,07,12,50,23.60
2022,10,07,12,51,23.60
2022,10,07,12,52,23.60
2022,10,07,12,53,23.60
2022,10,07,12,54,23.50
2022,10,07,12,55,23.60
2022,10,07,12,56,23.60
2022,10,07,12,57,23.60
2022,10,07,12,58,23.60
2022,10,07,12,59,23.60
2022,10,07,13,00,23.70
2022,10,07,13,01,23.70
2022,10,07,13,02,23.70
2022,10,07,13,03,23.70
2022,10,07,13,04,23.70
2022,10,07,13,05,23.80
2022,10,07,13,06,23.80
2022,10,07,13,07,23.90
2022,10,07,13,08,23.90
2022,10,07,13,09,24.00
2022,10,07,13,10,24.00
2022,10,07,13,11,24.10
2022,10,07,13,12,24.10
2022,10,07,13,13,24.20
2022,10,07,13,14,24.20
2022,10,07,13,15,24.20
2022,10,07,13,16,24.10
2022,10,07,13,17,24.20
2022,10,07,13,18,24.20
2022,10,07,13,19,24.20
2022,10,07,13,20,24.20
2022,10,07,13,21,24.10
2022,10,07,13,22,24.10
2022,10,07,13,23,24.10
2022,10,07,13,24,23.90
2022,10,07,13,25,23.90
2022,10,07,13,26,23.90
2022,10,07,13,27,23.90
2022,10,07,13,28,24.00
2022,10,07,13,29,24.10
2022,10,07,13,30,24.20
2022,10,07,13,31,24.20
2022,10,07,13,32,24.30
2022,10,07,13,33,24.40
2022,10,07,13,34,24.40
2022,10,07,13,35,24.40
2022,10,07,13,36,24.40
2022,10,07,13,37,24.40
2022,10,07,13,38,24.40
2022,10,07,13,39,24.40
2022,10,07,13,40,24.50
2022,10,07,13,41,24.50
2022,10,07,13,42,24.40
2022,10,07,13,43,24.40
2022,10,07,13,44,24.30
2022,10,07,13,45,24.30
2022,10,07,13,46,24.30
2022,10,07,13,47,24.30
2022,10,07,13,48,24.20
2022,10,07,13,49,24.20
2022,10,07,13,50,24.20
2022,10,07,13,51,24.10
2022,10,07,13,52,24.20
2022,10,07,13,53,24.20
2022,10,07,13,54,24.20
2022,10,07,13,55,24.20
2022,10,07,13,56,24.20
2022,10,07,13,57,24.30
2022,10,07,13,58,24.30
2022,10,07,13,59,24.40
2022,10,07,14,00,24.40
2022,10,07,14,01,24.40
2022,10,07,14,02,24.40
2022,10,07,14,03,24.40
2022,10,07,14,04,24.40
2022,10,07,14,05,24.40
2022,10,07,14,06,24.40
2022,10,07,14,07,24.40
2022,10,07,14,08,24.40
2022,10,07,14,09,24.40
2022,10,07,14,10,24.40
2022,10,07,14,11,24.40
2022,10,07,14,12,24.40
2022,10,07,14,13,24.40
2022,10,07,14,14,24.40
2022,10,07,14,15,24.40
2022,10,07,14,16,24.40
2022,10,07,14,17,24.40
2022,10,07,14,18,24.50
2022,10,07,14,19,24.60
2022,10,07,14,20,24.60
2022,10,07,14,21,24.50
2022,10,07,14,22,24.50
2022,10,07,14,23,24.40
2022,10,07,14,24,24.30
2022,10,07,14,25,24.30
2022,10,07,14,26,24.20
2022,10,07,14,27,24.20
2022,10,07,14,28,24.20
2022,10,07,14,29,24.20
2022,10,07,14,30,24.20
2022,10,07,14,31,24.10
2022,10,07,14,32,24.10
2022,10,07,14,33,24.10
2022,10,07,14,34,24.10
2022,10,07,14,35,24.10
2022,10,07,14,36,24.10
2022,10,07,14,37,24.20
2022,10,07,14,38,24.20
2022,10,07,14,39,24.20
2022,10,07,14,40,24.20
2022,10,07,14,41,24.30
2022,10,07,14,42,24.30
2022,10,07,14,43,24.30
2022,10,07,14,44,24.30
2022,10,07,14,45,24.30
2022,10,07,14,46,24.40
2022,10,07,14,47,24.40
2022,10,07,14,48,24.50
2022,10,07,14,49,24.40
2022,10,07,14,50,24.40
2022,10,07,14,51,24.50
2022,10,07,14,52,24.40
2022,10,07,14,53,24.40
2022,10,07,14,54,24.40
2022,10,07,14,55,24.40
2022,10,07,14,56,24.40
2022,10,07,14,57,24.40
2022,10,07,14,58,24.40
2022,10,07,14,59,24.30
2022,10,07,15,00,24.30
2022,10,07,15,01,24.40
2022,10,07,15,02,24.40
2022,10,07,15,03,24.40
2022,10,07,15,04,24.40
2022,10,07,15,05,24.40
2022,10,07,15,06,24.40
2022,10,07,15,07,24.40
2022,10,07,15,08,24.40
2022,10,07,15,09,24.40
2022,10,07,15,10,24.40
2022,10,07,15,11,24.40
2022,10,07,15,12,24.40
2022,10,07,15,13,24.40
2022,10,07,15,14,24.40
2022,10,07,15,15,24.40
2022,10,07,15,16,24.40
2022,10,07,15,17,24.40
2022,10,07,15,18,24.40
2022,10,07,15,19,24.30
2022,10,07,15,20,24.30
2022,10,07,15,21,24.30
2022,10,07,15,22,24.30
2022,10,07,15,23,24.30
2022,10,07,15,24,24.30
2022,10,07,15,25,24.30
2022,10,07,15,26,24.30
2022,10,07,15,27,24.30
2022,10,07,15,28,24.40
2022,10,07,15,29,24.40
2022,10,07,15,30,24.50
2022,10,07,15,31,24.50
2022,10,07,15,32,24.50
2022,10,07,15,33,24.50
2022,10,07,15,34,24.50
2022,10,07,15,35,24.40
2022,10,07,15,36,24.40
2022,10,07,15,37,24.40
2022,10,07,15,38,24.40
2022,10,07,15,39,24.40
2022,10,07,15,40,24.30
2022,10,07,15,41,24.30
2022,10,07,15,42,24.40
2022,10,07,15,43,24.40
2022,10,07,15,44,24.50
2022,10,07,15,45,24.60
2022,10,07,15,46,24.60
2022,10,07,15,47,24.60
2022,10,07,15,48,24.60
2022,10,07,15,49,24.60
2022,10,07,15,50,24.60
2022,10,07,15,51,24.60
2022,10,07,15,52,24.50
2022,10,07,15,53,24.50
2022,10,07,15,54,24.50
2022,10,07,15,55,24.60
2022,10,07,15,56,24.60
2022,10,07,15,57,24.60
2022,10,07,15,58,24.60
2022,10,07,15,59,24.60
2022,10,07,16,00,24.60
2022,10,07,16,01,24.60
2022,10,07,16,02,24.60
2022,10,07,16,03,24.70
2022,10,07,16,04,24.60
2022,10,07,16,05,24.60
2022,10,07,16,06,24.60
2022,10,07,16,07,24.70
2022,10,07,16,08,24.70
2022,10,07,16,09,24.60
2022,10,07,16,10,24.60
2022,10,07,16,11,24.60
2022,10,07,16,12,24.60
2022,10,07,16,13,24.60
2022,10,07,16,14,24.60
2022,10,07,16,15,24.60
2022,10,07,16,16,24.60
2022,10,07,16,17,24.50
2022,10,07,16,18,24.50
2022,10,07,16,19,24.50
2022,10,07,16,20,24.60
2022,10,07,16,21,24.60
2022,10,07,16,22,24.60
2022,10,07,16,23,24.60
2022,10,07,16,24,24.60
2022,10,07,16,25,24.60
2022,10,07,16,26,24.60
2022,10,07,16,27,24.50
2022,10,07,16,28,24.50
2022,10,07,16,29,24.50
2022,10,07,16,30,24.50
2022,10,07,16,31,24.50
2022,10,07,16,32,24.50
2022,10,07,16,33,24.50
2022,10,07,16,34,24.50
2022,10,07,16,35,24.50
2022,10,07,16,36,24.50
2022,10,07,16,37,24.50
2022,10,07,16,38,24.60
2022,10,07,16,39,24.60
2022,10,07,16,40,24.70
2022,10,07,16,41,24.70
2022,10,07,16,42,24.70
2022,10,07,16,43,24.70
2022,10,07,16,44,24.70
2022,10,07,16,45,24.70
2022,10,07,16,46,24.70
2022,10,07,16,47,24.70
2022,10,07,16,48,24.80
2022,10,07,16,49,24.80
2022,10,07,16,50,24.90
2022,10,07,16,51,24.90
2022,10,07,16,52,24.90
2022,10,07,16,53,25.00
2022,10,07,16,54,25.00
2022,10,07,16,55,25.00
2022,10,07,16,56,25.00
2022,10,07,16,57,25.10
2022,10,07,16,58,25.10
2022,10,07,16,59,25.10
2022,10,07,17,00,25.10
2022,10,07,17,01,25.10
2022,10,07,17,02,25.00
2022,10,07,17,03,25.00
2022,10,07,17,04,25.00
2022,10,07,17,05,25.10
2022,10,07,17,06,25.10
2022,10,07,17,07,25.10
2022,10,07,17,08,25.10
2022,10,07,17,09,25.10
2022,10,07,17,10,25.10
2022,10,07,17,11,25.10
2022,10,07,17,12,25.10
2022,10,07,17,13,25.10
2022,10,07,17,14,25.00
2022,10,07,17,15,25.00
2022,10,07,17,16,24.90
2022,10,07,17,17,24.90
2022,10,07,17,18,24.80
2022,10,07,17,19,24.80